Regional Weather Roundup
Issued by NWS

Home | Current Version | Previous Version | Text Only | Print | Product List | Glossary Off
Versions: 1 2 3 4 5 6 7 8 9 10 11 12 13 14 15 16 17 18 19 20 21 22 23 24 25 26 27 28 29 30 31 32 33 34 35 36 37 38 39 40 41 42 43 44 45 46 47 48 49 50

949
ASUS43 KLOT 110408
RWRIL

ILLINOIS REGIONAL WEATHER ROUNDUP
NATIONAL WEATHER SERVICE CHICAGO/ROMEOVILLE IL
1000 PM CST WED FEB 10 2016

NOTE: "FAIR" INDICATES FEW OR NO CLOUDS BELOW 12,000 FEET WITH NO
SIGNIFICANT WEATHER AND/OR OBSTRUCTIONS TO VISIBILITY.

* THESE STATIONS ARE NOT UNDER NWS QUALITY CONTROL. THEY ALSO MAY NOT
  REPORT WEATHER SUCH AS PRECIPITATION OR FOG.

ILZ001-002-007-009-015-016-024-110500-
NORTHWEST ILLINOIS

CITY           SKY/WX    TMP DP  RH WIND       PRES   REMARKS
MOLINE         PTCLDY    15   3  59 N6        30.19R WCI   6
STERLING*      CLOUDY    14   1  57 N7        30.16R WCI   4
SAVANNA*       CLOUDY    13   2  61 N5        30.20R WCI   5
$$

ILZ003-004-008-010-011-017-018-110500-
NORTH CENTRAL ILLINOIS

CITY           SKY/WX    TMP DP  RH WIND       PRES   REMARKS
ROCKFORD       MOCLDY    10   1  67 W3        30.20R
FREEPORT*      CLOUDY    10   3  75 CALM      30.19R
ROCHELLE*      CLOUDY    11   4  71 N6        30.19R WCI   2
DE KALB*       MOCLDY    10   2  69 NW3       30.16R
$$

ILZ005-006-012>014-019>023-110500-
NORTHEAST ILLINOIS

CITY           SKY/WX    TMP DP  RH WIND       PRES   REMARKS
CHICAGO-OHARE  PTCLDY    11   1  64 NW5       30.16R WCI   3
CHICAGO-MIDWAY PTCLDY    13   0  56 NW10      30.17R WCI   0
AURORA         CLEAR     10   4  76 N5        30.17R WCI   2
LANSING*       MOCLDY    14   2  57 N8        30.16S WCI   3
JOLIET*        CLEAR     14   4  63 N3        30.18R
WAUKEGAN       CLEAR      7   0  73 W5        30.15R WCI  -2
DUPAGE AIRPORT PTCLDY     8  -2  63 N3        30.16R
KANKAKEE*      CLEAR     14   5  68 NW3       30.17R
WHEELING       CLEAR     10   1  67 NW6       30.18R WCI   0
MORRIS*        CLEAR     11   4  75 CALM      30.15R
ROMEOVILLE*    CLEAR     11   2  67 N7        30.17R WCI   0
NORTHERLY ISL    N/A     14   3  61 W5          N/A  WCI   7
$$

LMZ740>746-110500-
SOUTHERN LAKE MICHIGAN

STATION/POSITION SKY/WX   TEMP    WIND        PRES    VSBY  WAVE
                          AIR SEA DIR/SP/G                  HT/PER
                          (F)     (DEG/KT/KT) (MB)    (MI)  (FT/S)
HARRISON CRIB              15     310/ 12/ 13   N/A
BURNHAM HARBOR             14     300/  7/ 12   N/A
CALUMET HARBOR             14                 1020.3
BURNS HARBOR               18     310/ 12/ 18 1020.7R
MICHIGAN CITY              17     280/ 11/ 14   N/A
$$

ILZ025>027-034>036-040-047-049-050-058-095>099-110500-
WEST-CENTRAL ILLINOIS

CITY           SKY/WX    TMP DP  RH WIND       PRES   REMARKS
QUINCY         CLOUDY    20  15  81 NE9       30.16R WCI   9
GALESBURG*     PTCLDY    14   8  76 N7        30.17R WCI   3
MACOMB*        CLOUDY    19  14  82 CALM      30.19S
JACKSONVILLE*  FLURRIES  21  17  84 CALM      30.17R
PITTSFIELD*    CLOUDY    21  18  89 NE5       30.16S WCI  14
$$

ILZ028>032-037-038-041>044-048-051>054-059>061-110500-
CENTRAL ILLINOIS

CITY           SKY/WX    TMP DP  RH WIND       PRES   REMARKS
PONTIAC        MOCLDY    15   8  75 NW5       30.18R WCI   7
BLOOMINGTON    PTCLDY    15   7  71 NW6       30.16R WCI   6
DECATUR        CLOUDY    20  12  71 W7        30.16S WCI  11
PEORIA         CLOUDY    16   7  67 CALM      30.18R
LACON*         PTCLDY    14   4  64 N7        30.18R WCI   4
LINCOLN*       CLOUDY    19  13  75 CALM      30.18R
SPRINGFIELD    CLOUDY    21  15  78 NW3       30.18R
TAYLORVILLE    CLOUDY    19  18  93 CALM      30.17S
$$

ILZ033-039-045-046-055>057-062-063-110500-
EAST-CENTRAL ILLINOIS

CITY           SKY/WX    TMP DP  RH WIND       PRES   REMARKS
CHAMPAIGN      MOCLDY    13   7  77 NW6       30.16R WCI   4
RANTOUL*       PTCLDY    16   8  72 NW5       30.16R WCI   8
MATTOON        MOCLDY    17  11  77 W7        30.15S WCI   8
PARIS*         CLEAR     15  10  80 W7        30.17S WCI   5
$$

ILZ079-100>102-110500-
SOUTHWEST ILLINOIS

CITY           SKY/WX    TMP DP  RH WIND       PRES   REMARKS
ALTON          CLOUDY    21  18  86 E8        30.17R WCI  12
BELLEVILLE     PTCLDY    22  20  94 E1        30.17R
CAHOKIA*       CLOUDY    23  18  81 SE5       30.17S WCI  17
SPARTA*        CLOUDY    22  19  89 CALM      30.17S
$$

ILZ064>066-069>071-074>076-080>082-084>086-088>090-092>094-110500-
SOUTH-CENTRAL ILLINOIS

CITY           SKY/WX    TMP DP  RH WIND       PRES   REMARKS
CARBONDALE     CLOUDY    23  18  81 E5        30.17F WCI  17
CAIRO*         CLOUDY    25  23  90 E7        30.17F WCI  17
EFFINGHAM*     FLURRIES  21  18  87 W3        30.19S
MARION         CLOUDY    23  19  86 CALM      30.18F
MT. VERNON     CLOUDY    21  16  79 CALM      30.18S
CENTRALIA*     CLOUDY    21  19  91 CALM      30.17S
SALEM*         FLURRIES  22  18  85 S3        30.17S
METROPOLIS*    CLOUDY    25  23  93 CALM      30.19F
$$

ILZ067-068-072-073-078-083-087-091-110500-
SOUTHEAST ILLINOIS

CITY           SKY/WX    TMP DP  RH WIND       PRES   REMARKS
LAWRENCEVILLE  MOCLDY    17  13  84 NW5       30.20R WCI  10
FLORA*         CLOUDY    22  18  85 CALM      30.19S
FAIRFIELD*     CLOUDY    21  18  90 CALM      30.19R
HARRISBURG*    CLOUDY    23  19  87 CALM      30.20S
ROBINSON*      CLEAR     15  11  85 CALM      30.20S
CARMI*         CLOUDY    21  19  89 CALM      30.20R
$$

ABBREVIATIONS USED IN REMARKS
   TC - TEMPERATURE IN CELSIUS
  WCI - WIND CHILL INDEX
   HX - HEAT INDEX
  VSB - VISIBILITY
$$





USA.gov is the U.S. government's official web portal to all federal, state and local government web resources and services.